1484128801.11,18863,5.0,72546.5,-10.43,-43.41,-43.95,0,*6B
1484128802.39,18864,5.0,72548.3,-10.41,-43.29,-43.75,0,*6E
1484128803.66,18865,5.0,72548.8,-10.43,-43.29,-43.67,0,*6E
1484128804.93,18866,5.0,72550.5,-10.41,-43.75,-44.13,0,*62
1484128806.17,18867,5.0,72548.8,-10.41,-44.07,-44.27,0,*66
1484128807.41,18868,5.0,72550.5,-10.43,-44.07,-44.47,0,*6D
1484128808.63,18869,5.0,72550.0,-10.43,-43.41,-43.87,0,*62
1484128809.85,18870,5.0,72546.8,-10.43,-43.41,-43.87,0,*6A
1484128811.07,18871,5.0,72546.3,-10.43,-43.41,-43.75,0,*66
1484128812.32,18872,5.0,72544.5,-10.41,-43.49,-43.75,0,*6F
1484128813.62,18873,5.0,72548.3,-10.41,-43.09,-43.55,0,*68
1484128814.89,18874,5.0,72546.0,-10.41,-43.67,-43.95,0,*6B
1484128816.16,18875,5.0,72548.0,-10.41,-43.67,-44.07,0,*66
1484128817.41,18876,5.0,72544.3,-10.41,-44.27,-44.53,0,*67
1484128818.68,18877,5.0,72550.5,-10.41,-43.55,-43.95,0,*69
1484128819.92,18878,5.0,72550.3,-10.41,-43.87,-44.27,0,*67
1484128821.19,18879,5.0,72548.5,-10.41,-43.87,-44.33,0,*63
1484128822.46,18880,5.0,72548.8,-10.37,-43.67,-44.07,0,*6D
1484128823.73,18881,5.0,72554.5,-10.41,-44.07,-44.33,0,*6B
1484128824.97,18882,5.0,72548.5,-10.43,-43.55,-43.95,0,*61
1484128826.22,18883,5.0,72550.3,-10.43,-43.55,-44.07,0,*6C
1484128827.48,18884,5.0,72548.0,-10.43,-43.21,-43.55,0,*68
1484128828.73,18885,5.0,72550.5,-10.41,-43.49,-43.95,0,*69
1484128830.0,18886,5.0,72552.8,-10.41,-43.67,-44.07,0,*6A
1484128831.27,18887,5.0,72552.0,-10.41,-43.95,-44.33,0,*61
1484128832.52,18888,5.0,72546.8,-10.43,-43.67,-44.07,0,*66
1484128833.77,18889,5.0,72550.3,-10.41,-43.49,-43.95,0,*65
1484128834.99,18890,5.0,72550.3,-10.43,-43.49,-43.95,0,*6F
1484128836.29,18891,5.0,72544.8,-10.41,-43.21,-43.55,0,*6E
1484128837.57,18892,5.0,72548.8,-10.41,-43.09,-43.41,0,*62
1484128838.86,18893,5.0,72544.0,-10.37,-42.95,-43.21,0,*60
1484128840.13,18894,5.0,72544.5,-10.37,-42.83,-43.35,0,*65
1484128841.39,18895,5.0,72550.3,-10.37,-43.01,-43.35,0,*6F
1484128842.63,18896,5.0,72546.3,-10.35,-42.69,-43.15,0,*63
1484128843.9,18897,5.0,72544.5,-10.37,-42.83,-43.35,0,*66
1484128845.14,18898,5.0,72544.8,-10.37,-43.15,-43.49,0,*6C
1484128846.41,18899,5.0,72550.3,-10.33,-42.95,-43.41,0,*68
1484128847.68,18900,5.0,72544.0,-10.33,-42.69,-43.15,0,*6B
1484128848.94,18901,5.0,72546.0,-10.33,-43.29,-43.75,0,*69
1484128850.21,18902,5.0,72546.5,-10.33,-43.75,-44.21,0,*65
1484128851.48,18903,5.0,72550.3,-10.33,-43.95,-44.33,0,*69
1484128852.71,18904,5.0,72548.8,-10.31,-44.27,-44.67,0,*63
1484128853.97,18905,5.0,72548.8,-10.33,-44.13,-44.53,0,*60
1484128855.26,18906,5.0,72546.8,-10.33,-44.01,-44.33,0,*66
1484128856.55,18907,5.0,72544.3,-10.33,-43.55,-44.01,0,*60
1484128857.79,18908,5.0,72544.3,-10.33,-43.15,-43.61,0,*6A
1484128859.03,18909,5.0,72544.8,-10.33,-43.15,-43.61,0,*6B
1484128860.29,18910,5.0,72544.5,-10.33,-43.15,-43.55,0,*64
1484128861.5,18911,5.0,72546.0,-10.31,-43.15,-43.61,0,*60
1484128862.77,18912,5.0,72544.5,-10.33,-43.41,-43.67,0,*66
1484128864.06,18913,5.0,72546.5,-10.33,-43.81,-44.33,0,*6D
1484128865.32,18914,5.0,72542.5,-10.33,-43.41,-43.81,0,*68
1484128866.59,18915,5.0,72544.5,-10.31,-43.29,-43.67,0,*6D
1484128867.83,18916,5.0,72546.3,-10.33,-42.89,-43.15,0,*62
1484128869.1,18917,5.0,72550.8,-10.33,-42.95,-43.41,0,*6F
1484128870.31,18918,5.0,72544.8,-10.31,-43.35,-43.75,0,*6E
1484128871.52,18919,5.0,72548.0,-10.31,-43.35,-43.87,0,*62
1484128872.75,18920,5.0,72548.3,-10.31,-43.87,-44.33,0,*69
1484128873.99,18921,5.0,72550.0,-10.31,-43.67,-43.95,0,*6D
1484128875.23,18922,5.0,72546.5,-10.31,-43.67,-44.27,0,*60
1484128876.44,18923,5.0,72548.0,-10.31,-43.87,-44.27,0,*6F
1484128877.7,18924,5.0,72548.8,-10.33,-43.41,-43.81,0,*6B
1484128878.94,18925,5.0,72548.8,-10.31,-43.29,-43.75,0,*6D
1484128880.2,18926,5.0,72548.5,-10.31,-43.21,-43.67,0,*65
1484128881.44,18927,5.0,72544.8,-10.31,-43.55,-43.95,0,*6A
1484128882.71,18928,5.0,72544.5,-10.33,-43.75,-44.13,0,*6C
1484128883.94,18929,5.0,72550.0,-10.31,-44.07,-44.33,0,*6F
1484128885.2,18930,5.0,72548.3,-10.33,-44.13,-44.61,0,*67
1484128886.47,18931,5.0,72550.0,-10.33,-43.55,-43.95,0,*6F
1484128887.71,18932,5.0,72548.5,-10.31,-43.55,-43.95,0,*6E
1484128888.98,18933,5.0,72546.5,-10.33,-43.75,-44.21,0,*67
1484128890.27,18934,5.0,72544.5,-10.33,-43.29,-43.55,0,*6D
1484128891.52,18935,5.0,72546.8,-10.31,-43.09,-43.35,0,*6A
1484128892.73,18936,5.0,72546.0,-10.31,-43.49,-43.75,0,*69
1484128893.97,18937,5.0,72544.5,-10.31,-43.75,-44.13,0,*60
1484128895.2,18938,5.0,72546.3,-10.31,-43.87,-44.33,0,*60
1484128896.44,18939,5.0,72546.3,-10.29,-43.35,-43.87,0,*69
1484128897.7,18940,5.0,72546.3,-10.29,-43.21,-43.75,0,*6F
1484128898.99,18941,5.0,72544.5,-10.29,-43.21,-43.67,0,*6D
1484128900.29,18942,5.0,72544.3,-10.29,-43.29,-43.67,0,*66
1484128901.58,18943,5.0,72544.3,-10.29,-43.21,-43.67,0,*6F
1484128902.85,18944,5.0,72550.0,-10.29,-42.83,-43.49,0,*6D
1484128904.07,18945,5.0,72544.0,-10.27,-43.01,-43.61,0,*63
1484128905.33,18946,5.0,72542.8,-10.27,-43.67,-44.21,0,*63
1484128906.6,18947,5.0,72546.8,-10.29,-44.33,-44.79,0,*67
1484128907.86,18948,5.0,72546.0,-10.29,-43.95,-44.33,0,*6D
1484128909.11,18949,5.0,72546.3,-10.27,-42.95,-43.61,0,*63
1484128910.35,18950,5.0,72546.5,-10.29,-43.49,-43.87,0,*6D
1484128911.61,18951,5.0,72546.8,-10.29,-43.29,-43.75,0,*67
1484128912.82,18952,5.0,72546.5,-10.27,-43.41,-43.87,0,*69
1484128914.03,18953,5.0,72548.5,-10.27,-43.87,-44.27,0,*6F
1484128915.27,18954,5.0,72544.0,-10.27,-44.01,-44.41,0,*61
1484128916.5,18955,5.0,72544.8,-10.27,-43.81,-44.27,0,*6F
1484128917.77,18956,5.0,72546.5,-10.29,-44.13,-44.61,0,*6C
1484128919.01,18957,5.0,72542.3,-10.29,-44.53,-45.13,0,*6D
1484128920.3,18958,5.0,72544.5,-10.29,-44.47,-44.93,0,*6E
1484128921.56,18959,5.0,72544.0,-10.29,-43.87,-44.33,0,*6E
1484128922.85,18960,5.0,72544.8,-10.29,-43.67,-44.13,0,*68
1484128924.11,18961,5.0,72546.0,-10.29,-43.87,-44.33,0,*65
1484128925.38,18962,5.0,72548.3,-10.29,-43.67,-44.07,0,*6F
1484128926.62,18963,5.0,72546.3,-10.27,-43.81,-44.27,0,*6A
1484128927.91,18964,5.0,72550.0,-10.29,-44.47,-44.93,0,*61
1484128929.14,18965,5.0,72546.5,-10.31,-43.95,-44.47,0,*68
1484128930.37,18966,5.0,72546.0,-10.31,-44.07,-44.47,0,*67
1484128931.62,18967,5.0,72546.5,-10.31,-44.27,-44.93,0,*6D
1484128932.85,18968,5.0,72544.5,-10.31,-44.33,-44.79,0,*63
1484128934.08,18969,5.0,72546.5,-10.31,-44.13,-44.53,0,*68
1484128935.31,18970,5.0,72546.3,-10.31,-44.13,-44.53,0,*60
1484128936.55,18971,5.0,72546.3,-10.31,-44.27,-44.67,0,*61
1484128937.76,18972,5.0,72542.0,-10.31,-43.95,-44.27,0,*68
1484128938.99,18973,5.0,72548.0,-10.31,-44.07,-44.47,0,*63
1484128940.25,18974,5.0,72546.5,-10.31,-44.13,-44.67,0,*63
1484128941.48,18975,5.0,72548.5,-10.31,-44.07,-44.47,0,*65
1484128942.74,18976,5.0,72546.8,-10.33,-44.13,-44.61,0,*65
1484128944.02,18977,5.0,72546.8,-10.33,-43.81,-44.33,0,*6F
1484128945.27,18978,5.0,72546.8,-10.31,-43.67,-43.95,0,*61
1484128946.5,18979,5.0,72548.0,-10.31,-43.55,-44.07,0,*6D
1484128947.77,18980,5.0,72550.0,-10.33,-43.75,-44.21,0,*6F
1484128949.03,18981,5.0,72550.3,-10.33,-43.35,-43.81,0,*67
1484128950.24,18982,5.0,72550.5,-10.31,-43.49,-43.87,0,*6B
1484128951.44,18983,5.0,72548.5,-10.31,-43.35,-43.87,0,*61
1484128952.71,18984,5.0,72548.3,-10.31,-43.67,-44.13,0,*6B
1484128953.91,18985,5.0,72544.5,-10.31,-43.87,-44.27,0,*63
1484128955.14,18986,5.0,72548.5,-10.31,-43.87,-44.33,0,*65
1484128956.38,18987,5.0,72548.8,-10.31,-43.87,-44.13,0,*66
1484128957.58,18988,5.0,72550.0,-10.31,-43.87,-44.27,0,*6E
1484128958.8,18989,5.0,72552.0,-10.31,-43.49,-43.87,0,*60
1484128960.01,18990,5.0,72550.3,-10.31,-43.49,-43.75,0,*65
1484128961.25,18991,5.0,72548.3,-10.31,-43.29,-43.75,0,*62
1484128962.46,18992,5.0,72548.0,-10.31,-43.35,-43.75,0,*6C
1484128963.67,18993,5.0,72550.0,-10.31,-43.35,-43.75,0,*6D
1484128964.9,18994,5.0,72546.8,-10.29,-43.35,-43.87,0,*6E
1484128966.17,18995,5.0,72548.5,-10.29,-43.21,-43.49,0,*68
1484128967.42,18996,5.0,72546.5,-10.29,-43.01,-43.35,0,*62
1484128968.72,18997,5.0,72550.0,-10.29,-43.09,-43.55,0,*6D
1484128969.99,18998,5.0,72546.0,-10.27,-42.95,-43.29,0,*63
1484128971.25,18999,5.0,72546.3,-10.27,-42.95,-43.29,0,*62
1484128972.54,19000,5.0,72546.0,-10.25,-43.21,-43.67,0,*6C
1484128973.81,19001,5.0,72546.5,-10.25,-43.61,-44.01,0,*6E
1484128975.05,19002,5.0,72554.3,-10.25,-43.49,-43.87,0,*6E
1484128976.34,19003,5.0,72550.3,-10.25,-43.29,-43.67,0,*67
1484128977.55,19004,5.0,72548.0,-10.23,-43.35,-43.75,0,*68
1484128978.81,19005,5.0,72548.0,-10.25,-43.81,-44.07,0,*62
1484128980.02,19006,5.0,72552.3,-10.23,-43.49,-43.87,0,*6C
1484128981.32,19007,5.0,72546.8,-10.25,-43.67,-44.21,0,*6C
1484128982.61,19008,5.0,72550.5,-10.25,-43.67,-44.21,0,*63
1484128983.87,19009,5.0,72550.5,-10.25,-43.49,-43.81,0,*63
1484128985.13,19010,5.0,72548.3,-10.25,-43.81,-44.07,0,*66
1484128986.42,19011,5.0,72546.3,-10.25,-43.67,-44.21,0,*6B
1484128987.71,19012,5.0,72550.5,-10.25,-43.67,-44.01,0,*6A
1484128988.98,19013,5.0,72550.8,-10.25,-43.61,-44.01,0,*6D
1484128990.27,19014,5.0,72550.3,-10.25,-43.67,-44.01,0,*6C
1484128991.51,19015,5.0,72548.5,-10.25,-43.61,-44.07,0,*6D
1484128992.74,19016,5.0,72548.8,-10.25,-43.87,-44.27,0,*64
1484128994.01,19017,5.0,72552.3,-10.25,-43.67,-44.07,0,*69
1484128995.27,19018,5.0,72546.3,-10.27,-43.67,-44.21,0,*60
1484128996.48,19019,5.0,72548.8,-10.27,-43.49,-43.87,0,*66
1484128997.75,19020,5.0,72548.0,-10.29,-43.67,-44.07,0,*61
1484128998.99,19021,5.0,72548.5,-10.25,-43.61,-44.07,0,*6A
1484129000.26,19022,5.0,72548.8,-10.25,-43.81,-44.07,0,*67
1484129001.52,19023,5.0,72548.3,-10.25,-43.81,-44.07,0,*66
1484129002.75,19024,5.0,72554.3,-10.27,-43.81,-44.07,0,*63
1484129004.01,19025,5.0,72548.3,-10.27,-43.67,-44.01,0,*6C
1484129005.27,19026,5.0,72548.3,-10.27,-43.67,-44.01,0,*6F
1484129006.52,19027,5.0,72550.0,-10.27,-43.61,-44.01,0,*68
1484129007.75,19028,5.0,72550.5,-10.27,-43.41,-43.81,0,*6A
1484129008.96,19029,5.0,72544.0,-10.27,-43.49,-43.87,0,*65
1484129010.2,19030,5.0,72550.5,-10.27,-43.61,-44.01,0,*6E
1484129011.46,19031,5.0,72548.3,-10.25,-43.41,-43.81,0,*60
1484129012.72,19032,5.0,72546.8,-10.25,-43.41,-43.81,0,*63
1484129014.01,19033,5.0,72550.0,-10.25,-43.29,-43.81,0,*6C
1484129015.29,19034,5.0,72544.3,-10.25,-43.21,-43.81,0,*63
1484129016.55,19035,5.0,72546.0,-10.25,-43.29,-43.87,0,*6C
1484129017.78,19036,5.0,72550.0,-10.23,-43.41,-43.81,0,*61
1484129019.02,19037,5.0,72548.0,-10.25,-43.15,-43.61,0,*69
1484129020.27,19038,5.0,72550.5,-10.23,-43.09,-43.61,0,*6D
1484129021.51,19039,5.0,72546.8,-10.23,-43.09,-43.35,0,*6D
1484129022.77,19040,5.0,72544.3,-10.25,-43.21,-43.61,0,*6E
1484129024.04,19041,5.0,72548.3,-10.23,-43.09,-43.55,0,*64
1484129025.25,19042,5.0,72546.0,-10.23,-42.75,-43.15,0,*69
1484129026.52,19043,5.0,72546.0,-10.23,-42.69,-43.09,0,*68
1484129027.79,19044,5.0,72548.3,-10.23,-42.95,-43.21,0,*66
1484129029.06,19045,5.0,72548.5,-10.21,-42.95,-43.41,0,*63
1484129030.33,19046,5.0,72546.5,-10.21,-42.95,-43.35,0,*63
1484129031.6,19047,5.0,72546.5,-10.21,-42.89,-43.29,0,*62
1484129032.84,19048,5.0,72548.8,-10.19,-42.83,-43.15,0,*63
1484129034.11,19049,5.0,72548.8,-10.21,-42.95,-43.61,0,*6D
1484129035.37,19050,5.0,72548.0,-10.21,-43.21,-43.61,0,*6B
1484129036.61,19051,5.0,72548.0,-10.19,-43.15,-43.55,0,*61
1484129037.85,19052,5.0,72546.0,-10.19,-43.15,-43.55,0,*62
1484129039.09,19053,5.0,72548.0,-10.21,-43.35,-43.75,0,*68
1484129040.3,19054,5.0,72546.3,-10.19,-43.15,-43.75,0,*66
1484129041.57,19055,5.0,72544.3,-10.19,-43.29,-43.67,0,*6B
1484129042.84,19056,5.0,72548.0,-10.19,-43.29,-43.67,0,*68
1484129044.06,19057,5.0,72544.5,-10.19,-43.49,-43.95,0,*62
1484129045.32,19058,5.0,72550.3,-10.21,-43.41,-43.81,0,*6B
1484129046.54,19059,5.0,72546.3,-10.19,-43.01,-43.49,0,*61
1484129047.76,19060,5.0,72544.0,-10.19,-43.01,-43.49,0,*6B
1484129049.0,19061,5.0,72546.0,-10.19,-43.15,-43.55,0,*62
1484129050.25,19062,5.0,72542.3,-10.19,-43.01,-43.55,0,*64
1484129051.48,19063,5.0,72544.8,-10.19,-43.01,-43.49,0,*68
1484129052.71,19064,5.0,72544.3,-10.15,-43.15,-43.67,0,*6A
1484129053.98,19065,5.0,72546.3,-10.15,-43.09,-43.55,0,*67
1484129055.18,19066,5.0,72546.0,-10.15,-43.15,-43.75,0,*6B
1484129056.42,19067,5.0,72548.3,-10.15,-42.63,-42.95,0,*65
1484129057.64,19068,5.0,72544.3,-10.15,-43.01,-43.49,0,*6F
1484129058.85,19069,5.0,72544.3,-10.15,-43.01,-43.49,0,*6E
1484129060.12,19070,5.0,72544.8,-10.13,-42.57,-43.01,0,*6E
1484129061.39,19071,5.0,72544.3,-10.13,-42.19,-42.63,0,*60
1484129062.66,19072,5.0,72548.3,-10.09,-42.19,-42.69,0,*62
1484129063.92,19073,5.0,72546.8,-10.07,-42.57,-43.01,0,*68
1484129065.16,19074,5.0,72546.0,-10.09,-42.57,-43.01,0,*61
1484129066.41,19075,5.0,72548.8,-10.07,-42.75,-43.41,0,*6A
1484129067.66,19076,5.0,72544.5,-10.09,-42.95,-43.41,0,*69
1484129068.93,19077,5.0,72550.5,-10.07,-43.55,-43.95,0,*62
1484129070.18,19078,5.0,72546.8,-10.09,-43.75,-44.21,0,*69
1484129071.42,19079,5.0,72550.0,-10.09,-43.41,-43.81,0,*62
1484129072.69,19080,5.0,72550.8,-10.09,-43.55,-44.01,0,*6E
1484129073.95,19081,5.0,72548.3,-10.09,-43.55,-44.01,0,*6F
1484129075.19,19082,5.0,72548.0,-10.09,-43.21,-43.75,0,*6B
1484129076.45,19083,5.0,72548.8,-10.13,-43.21,-43.61,0,*64
1484129077.68,19084,5.0,72550.3,-10.09,-42.89,-43.35,0,*6A
1484129078.9,19085,5.0,72550.0,-10.09,-42.75,-43.15,0,*6A
1484129080.15,19086,5.0,72552.5,-10.07,-43.01,-43.41,0,*64
1484129081.36,19087,5.0,72550.3,-10.09,-43.35,-43.75,0,*6B
1484129082.61,19088,5.0,72548.0,-10.07,-42.89,-43.41,0,*6B
1484129083.85,19089,5.0,72544.5,-10.07,-42.75,-43.35,0,*6A
1484129085.12,19090,5.0,72548.5,-10.07,-42.69,-43.01,0,*68
1484129086.39,19091,5.0,72548.0,-10.07,-42.19,-42.75,0,*6C
1484129087.68,19092,5.0,72550.0,-10.07,-42.31,-42.69,0,*68
1484129088.93,19093,5.0,72546.8,-10.05,-42.31,-42.75,0,*66
1484129090.21,19094,5.0,72548.3,-10.03,-42.45,-42.83,0,*6D
1484129091.45,19095,5.0,72548.8,-10.03,-42.51,-42.89,0,*63
1484129092.74,19096,5.0,72550.5,-10.03,-42.31,-42.69,0,*68
1484129094.01,19097,5.0,72548.3,-10.03,-42.69,-43.15,0,*6E
1484129095.27,19098,5.0,72550.0,-10.03,-43.15,-43.55,0,*6F
1484129096.55,19099,5.0,72548.0,-10.03,-42.95,-43.35,0,*61
1484129097.81,19100,5.0,72548.5,-10.03,-42.89,-43.29,0,*60
1484129099.1,19101,5.0,72548.8,-10.03,-42.69,-43.09,0,*6D
1484129100.37,19102,5.0,72544.8,-10.03,-42.69,-43.15,0,*63
1484129101.61,19103,5.0,72546.5,-10.01,-42.63,-43.09,0,*67
1484129102.85,19104,5.0,72550.8,-10.01,-42.89,-43.29,0,*66
1484129104.09,19105,5.0,72546.3,-10.01,-42.89,-43.29,0,*67
1484129105.32,19106,5.0,72546.8,-9.99,-42.63,-43.01,0,*53
1484129106.56,19107,5.0,72544.3,-9.99,-42.37,-42.63,0,*56
1484129107.8,19108,5.0,72544.5,-10.01,-42.63,-43.09,0,*6C
1484129109.03,19109,5.0,72548.0,-9.99,-42.63,-42.89,0,*5D
1484129110.32,19110,5.0,72546.3,-9.99,-43.09,-43.67,0,*59
1484129111.55,19111,5.0,72548.0,-10.01,-43.01,-43.41,0,*6D
1484129112.78,19112,5.0,72548.8,-9.99,-43.41,-43.87,0,*59
1484129114.04,19113,5.0,72548.5,-9.99,-43.29,-43.61,0,*5E
1484129115.32,19114,5.0,72544.3,-9.99,-42.83,-43.29,0,*54
1484129116.56,19115,5.0,72544.3,-9.99,-43.01,-43.41,0,*50
1484129117.8,19116,5.0,72550.0,-9.99,-42.89,-43.41,0,*52
1484129119.04,19117,5.0,72544.5,-9.97,-42.75,-43.21,0,*58
1484129120.28,19118,5.0,72546.3,-9.97,-42.95,-43.35,0,*5C
1484129121.49,19119,5.0,72546.0,-9.97,-42.75,-43.01,0,*54
1484129122.73,19120,5.0,72548.3,-9.97,-42.75,-43.21,0,*5C
1484129123.96,19121,5.0,72546.8,-9.97,-42.69,-43.01,0,*52
1484129125.19,19122,5.0,72548.8,-9.97,-42.69,-43.01,0,*51
1484129126.45,19123,5.0,72548.3,-9.99,-42.63,-43.09,0,*5C
1484129127.69,19124,5.0,72546.8,-9.97,-42.75,-43.21,0,*58
1484129128.95,19125,5.0,72546.8,-9.97,-42.69,-43.21,0,*54
1484129130.2,19126,5.0,72548.3,-9.95,-42.51,-42.83,0,*57
1484129131.46,19127,5.0,72546.8,-9.95,-42.51,-42.95,0,*51
1484129132.75,19128,5.0,72548.0,-9.95,-42.69,-42.95,0,*55
1484129134.03,19129,5.0,72550.8,-9.95,-42.83,-43.21,0,*5E
1484129135.3,19130,5.0,72550.5,-9.95,-42.83,-43.21,0,*56
1484129136.58,19131,5.0,72544.3,-9.95,-42.83,-43.21,0,*57
1484129137.81,19132,5.0,72546.0,-9.91,-42.63,-43.15,0,*59
1484129139.08,19133,5.0,72548.5,-9.89,-42.31,-42.95,0,*5F
1484129140.31,19134,5.0,72548.8,-9.89,-42.51,-42.95,0,*5E
1484129141.58,19135,5.0,72544.8,-9.91,-42.51,-43.09,0,*52
1484129142.81,19136,5.0,72550.3,-9.89,-42.45,-42.75,0,*57
1484129144.07,19137,5.0,72544.5,-9.91,-42.45,-42.75,0,*5F
1484129145.31,19138,5.0,72546.0,-9.89,-42.45,-42.75,0,*59
1484129146.55,19139,5.0,72546.0,-9.89,-42.45,-42.75,0,*58
1484129147.83,19140,5.0,72544.8,-9.87,-42.19,-42.57,0,*51
1484129149.11,19141,5.0,72548.3,-9.87,-42.19,-42.57,0,*50
1484129150.39,19142,5.0,72546.5,-9.87,-42.19,-42.57,0,*53
1484129151.62,19143,5.0,72544.8,-9.85,-42.45,-43.01,0,*5B
1484129152.85,19144,5.0,72542.5,-9.85,-42.45,-42.89,0,*5D
1484129154.07,19145,5.0,72546.3,-9.85,-42.25,-42.63,0,*5E
1484129155.3,19146,5.0,72544.3,-9.85,-42.45,-43.01,0,*5E
1484129156.52,19147,5.0,72548.0,-9.83,-42.51,-43.01,0,*5C
1484129157.78,19148,5.0,72546.3,-9.83,-42.51,-42.95,0,*5F
1484129159.04,19149,5.0,72548.3,-9.83,-42.19,-42.63,0,*5B
1484129160.32,19150,5.0,72546.0,-9.83,-42.19,-42.83,0,*5D
1484129161.53,19151,5.0,72548.5,-9.81,-42.37,-43.01,0,*59
1484129162.75,19152,5.0,72544.0,-9.81,-42.57,-43.15,0,*59
1484129164.01,19153,5.0,72546.3,-9.83,-42.51,-42.95,0,*55
1484129165.25,19154,5.0,72548.3,-9.81,-42.51,-42.95,0,*50
1484129166.48,19155,5.0,72546.8,-9.81,-42.51,-42.95,0,*51
1484129167.71,19156,5.0,72544.0,-9.81,-42.37,-42.95,0,*52
1484129168.95,19157,5.0,72548.3,-9.81,-42.83,-43.35,0,*57
1484129170.15,19158,5.0,72546.0,-9.81,-42.51,-43.01,0,*50
1484129171.38,19159,5.0,72546.5,-9.79,-42.05,-42.51,0,*53
1484129172.62,19160,5.0,72546.0,-9.79,-42.31,-42.75,0,*58
1484129173.88,19161,5.0,72550.0,-9.79,-42.45,-42.95,0,*54
1484129175.11,19162,5.0,72548.5,-9.79,-42.13,-42.57,0,*5A
1484129176.35,19163,5.0,72550.5,-9.77,-42.13,-42.75,0,*55
1484129177.61,19164,5.0,72546.3,-9.77,-42.31,-42.75,0,*52
1484129178.88,19165,5.0,72546.8,-9.77,-42.51,-43.09,0,*5F
1484129180.14,19166,5.0,72540.0,-9.77,-42.45,-42.89,0,*50
1484129181.39,19167,5.0,72546.0,-9.75,-42.05,-42.69,0,*59
1484129182.62,19168,5.0,72544.5,-9.75,-42.25,-42.69,0,*54
1484129183.87,19169,5.0,72544.8,-9.75,-42.69,-43.21,0,*50
1484129185.08,19170,5.0,72548.8,-9.75,-42.51,-43.01,0,*51
1484129186.31,19171,5.0,72548.5,-9.75,-42.25,-42.69,0,*5C
1484129187.54,19172,5.0,72548.8,-9.75,-42.45,-43.01,0,*56
1484129188.78,19173,5.0,72546.5,-9.73,-43.01,-43.41,0,*54
1484129189.99,19174,5.0,72546.5,-9.75,-43.01,-43.61,0,*57
1484129191.25,19175,5.0,72544.8,-9.75,-42.83,-43.29,0,*51
1484129192.49,19176,5.0,72544.5,-9.75,-43.01,-43.67,0,*53
1484129193.74,19177,5.0,72546.8,-9.73,-43.29,-44.07,0,*5F
1484129194.98,19178,5.0,72546.3,-9.75,-43.81,-44.47,0,*50
1484129196.24,19179,5.0,72546.0,-9.75,-43.67,-44.13,0,*58
1484129197.46,19180,5.0,72542.0,-9.75,-43.41,-43.81,0,*56
1484129198.69,19181,5.0,72544.3,-9.77,-43.49,-43.87,0,*5B
1484129199.93,19182,5.0,72546.8,-9.77,-43.15,-43.75,0,*5C
1484129201.16,19183,5.0,72546.8,-9.77,-43.49,-43.75,0,*54
1484129202.39,19184,5.0,72546.5,-9.77,-43.35,-43.87,0,*55
1484129203.62,19185,5.0,72542.8,-9.77,-43.35,-43.87,0,*54
1484129204.88,19186,5.0,72542.0,-9.77,-43.55,-43.87,0,*51
1484129206.16,19187,5.0,72548.3,-9.77,-43.67,-44.21,0,*5A
1484129207.45,19188,5.0,72546.5,-9.77,-43.67,-44.33,0,*56
1484129208.73,19189,5.0,72546.0,-9.77,-43.67,-44.33,0,*57
1484129210.01,19190,5.0,72546.8,-9.77,-43.55,-44.33,0,*5E
1484129211.27,19191,5.0,72546.3,-9.79,-43.67,-44.21,0,*53
1484129212.5,19192,5.0,72548.0,-9.79,-43.35,-44.21,0,*57
1484129213.75,19193,5.0,72544.0,-9.79,-43.55,-44.13,0,*51
1484129215.0,19194,5.0,72544.8,-9.79,-43.55,-44.13,0,*56
1484129216.2,19195,5.0,72546.0,-9.79,-43.35,-43.87,0,*5B
1484129217.43,19196,5.0,72544.3,-9.79,-43.15,-43.67,0,*54
1484129218.67,19197,5.0,72542.3,-9.79,-43.15,-43.67,0,*55
1484129219.9,19198,5.0,72542.8,-9.77,-43.35,-43.75,0,*55
1484129221.1,19199,5.0,72542.8,-9.79,-43.15,-43.75,0,*58
1484129222.33,19200,5.0,72542.8,-9.79,-43.15,-43.67,0,*58
1484129223.6,19201,5.0,72544.8,-9.77,-42.95,-43.49,0,*52
1484129224.86,19202,5.0,72540.5,-9.77,-42.75,-43.09,0,*5B
1484129226.15,19203,5.0,72540.5,-9.77,-42.69,-43.09,0,*57
1484129227.44,19204,5.0,72540.0,-9.77,-42.45,-43.09,0,*5E
1484129228.7,19205,5.0,72542.3,-9.77,-42.51,-42.95,0,*5E
1484129229.97,19206,5.0,72544.5,-9.77,-42.51,-42.95,0,*5D
1484129231.2,19207,5.0,72544.3,-9.75,-42.45,-42.89,0,*56
1484129232.42,19208,5.0,72544.5,-9.75,-42.63,-43.21,0,*5E
1484129233.67,19209,5.0,72544.0,-9.75,-42.83,-43.21,0,*51
1484129234.88,19210,5.0,72546.5,-9.75,-42.89,-43.41,0,*55
1484129236.14,19211,5.0,72544.0,-9.73,-42.83,-43.41,0,*58
1484129237.35,19212,5.0,72544.3,-9.75,-42.89,-43.41,0,*57
1484129238.62,19213,5.0,72540.8,-9.73,-42.83,-43.29,0,*54
1484129239.86,19214,5.0,72544.0,-9.73,-43.01,-43.41,0,*56
1484129241.1,19215,5.0,72544.8,-9.73,-43.01,-43.49,0,*5F
1484129242.31,19216,5.0,72546.3,-9.75,-42.89,-43.49,0,*5B
1484129243.56,19217,5.0,72544.0,-9.75,-42.69,-43.09,0,*50
1484129244.82,19218,5.0,72544.5,-9.73,-43.09,-43.61,0,*50
1484129246.05,19219,5.0,72542.8,-9.73,-42.89,-43.41,0,*5A
1484129247.31,19220,5.0,72540.3,-9.73,-43.21,-43.61,0,*51
1484129248.54,19221,5.0,72544.3,-9.73,-42.89,-43.41,0,*51
1484129249.77,19222,5.0,72544.5,-9.73,-43.41,-43.95,0,*5E
1484129251.05,19223,5.0,72544.3,-9.73,-43.29,-43.81,0,*54
1484129252.31,19224,5.0,72542.8,-9.73,-43.09,-43.61,0,*5F
1484129253.58,19225,5.0,72546.0,-9.73,-42.69,-43.29,0,*55
1484129254.82,19226,5.0,72544.5,-9.73,-43.01,-43.49,0,*5F
1484129256.06,19227,5.0,72544.5,-9.73,-43.01,-43.61,0,*54
1484129257.31,19228,5.0,72544.5,-9.73,-43.09,-43.49,0,*59
1484129258.52,19229,5.0,72540.8,-9.71,-42.63,-43.15,0,*5E
1484129259.75,19230,5.0,72542.8,-9.71,-43.01,-43.55,0,*57
1484129260.99,19231,5.0,72542.8,-9.67,-42.95,-43.41,0,*58
1484129262.19,19232,5.0,72546.5,-9.67,-42.75,-43.35,0,*56
1484129263.4,19233,5.0,72544.3,-9.71,-43.15,-43.61,0,*56
1484129264.62,19234,5.0,72542.5,-9.71,-43.55,-44.07,0,*52
1484129265.84,19235,5.0,72540.5,-9.71,-43.21,-43.75,0,*52
1484129267.04,19236,5.0,72544.5,-9.71,-43.15,-43.75,0,*56
1484129268.28,19237,5.0,72544.3,-9.71,-42.95,-43.41,0,*59
1484129269.53,19238,5.0,72546.5,-9.71,-43.55,-44.01,0,*58
1484129270.73,19239,5.0,72546.8,-9.71,-43.15,-43.75,0,*59
1484129271.96,19240,5.0,72544.3,-9.71,-42.95,-43.35,0,*5A
1484129273.19,19241,5.0,72546.3,-9.71,-43.35,-44.01,0,*50
1484129274.42,19242,5.0,72540.0,-9.71,-43.01,-43.55,0,*52
1484129275.66,19243,5.0,72542.3,-9.71,-42.95,-43.35,0,*59
1484129276.86,19244,5.0,72544.0,-9.71,-42.63,-43.15,0,*55
1484129278.06,19245,5.0,72540.8,-9.71,-42.63,-43.15,0,*54
1484129279.26,19246,5.0,72540.8,-9.71,-42.75,-43.15,0,*50
1484129280.46,19247,5.0,72538.5,-9.67,-42.63,-43.15,0,*51
1484129281.69,19248,5.0,72544.0,-9.67,-42.63,-43.21,0,*59
1484129282.91,19249,5.0,72542.8,-9.71,-43.15,-43.55,0,*5C
1484129284.12,19250,5.0,72544.3,-9.67,-42.75,-43.15,0,*50
1484129285.35,19251,5.0,72542.5,-9.67,-42.37,-42.95,0,*5E
1484129286.6,19252,5.0,72542.5,-9.67,-42.57,-42.95,0,*5B
1484129287.83,19253,5.0,72544.0,-9.67,-42.57,-43.01,0,*56
1484129289.06,19254,5.0,72544.3,-9.67,-42.95,-43.35,0,*58
1484129290.32,19255,5.0,72542.3,-9.65,-42.95,-43.35,0,*5B
1484129291.55,19256,5.0,72540.0,-9.65,-42.75,-43.15,0,*54
1484129292.78,19257,5.0,72542.0,-9.65,-42.51,-42.89,0,*57
1484129294.01,19258,5.0,72540.3,-9.65,-42.37,-42.75,0,*5B
1484129295.24,19259,5.0,72544.0,-9.65,-42.37,-42.89,0,*59
1484129296.52,19260,5.0,72544.0,-9.65,-42.69,-43.09,0,*51
1484129297.73,19261,5.0,72544.0,-9.63,-42.89,-43.35,0,*57
1484129298.97,19262,5.0,72538.5,-9.63,-43.29,-43.81,0,*50
1484129300.2,19263,5.0,72538.3,-9.63,-43.15,-43.67,0,*56
1484129301.45,19264,5.0,72540.5,-9.65,-43.49,-44.13,0,*5A
1484129302.68,19265,5.0,72544.0,-9.63,-43.49,-44.13,0,*5D
1484129303.93,19266,5.06,72544.5,-9.65,-43.49,-44.01,0,*5B
1484129305.18,19267,5.0,72542.5,-9.65,-43.49,-44.01,0,*5A
1484129306.41,19268,5.0,72538.8,-9.63,-43.75,-44.13,0,*5F
1484129307.69,19269,5.0,72542.0,-9.65,-43.55,-44.21,0,*5B
1484129308.97,19270,5.0,72540.0,-9.65,-43.55,-44.13,0,*52
1484129310.2,19271,5.0,72542.3,-9.67,-43.61,-44.21,0,*57
1484129311.4,19272,5.0,72544.0,-9.67,-43.61,-44.07,0,*50